www.pogodaiklimat.ru

Погода и климат >> Архив погоды >> Украина >> Берегово


ПОГОДА в Берегове

  • Прогноз погоды в Берегове
  • Монитор погоды в Берегове

АРХИВ ПОГОДЫ в Берегове

Время (UTC), дата Ветер
(напр.,м/с)
 
Видим.   Явления Облачность Т
(С)
Тd
(С)
f
(%)
Тe
(С)
Тes
(С)
Комфортность P
(гПа)
Po
(гПа)
Тmin
(С)
Tmax
(С)
R
(мм)
R24
(мм)
S
(см)
00 12.06 штиль 0 20 км ясно +19.8 +15.4 76 +22 +22 комфорт 1015.5 1002.1
03 12.06 штиль 0 20 км 5/3 600 м
[Sc Ci fib]
+17.6 +14.2 80 +18 +18 1015.1 1001.6
06 12.06 штиль 0 20 км 4/3 600 м
[Sc Ac trans Ci fib]
+25.0 +17.7 64 +29 +35 душно 1015.1 1001.9 +17.1
09 12.06 В 1 20 км 6 баллов +28.6 +15.1 44
12 12.06 З 1 20 км 4/4 600 м
[Cu hum]
+31.2 +15.2 38 +34 +45 душно 1013.7 1000.8
15 12.06 штиль 0 20 км 6/3 600 м
[Cu hum Ac trans Ci fib]
+31.8 +17.3 42 +36 +40 очень
душно
1013.3 1000.4
18 12.06 В 2 20 км 8/4 600 м
[Cu hum Ac trans Ci fib]
+27.2 +15.2 48 +30 +30 душно 1013.3 1000.2 +32.3
21 12.06 В 2 10 км ясно +23.0 +16.1 65 +27 +27 душно 1014.4 1001.1
00 13.06 штиль 0 10 км ясно +20.8 +16.2 75 +24 +24 комфорт 1015.0 1001.6
03 13.06 штиль 0 20 км ясно +17.4 +13.9 80 +17 +17 1015.2 1001.7
06 13.06 штиль 0 20 км 4/0
[Ci fib]
+24.2 +13.7 52 +26 +34 жарко 1015.8 1002.6 +16.9
09 13.06 Ю 1 20 км 6/4 600 м
[Cu hum Ci fib]
+28.5 +13.6 40 +30 +41 жарко 1015.9 1002.9
12 13.06 Ю 1 20 км 6/5 600 м
[Cu hum Ci fib]
+31.6 +18.2 45 +36 +45 очень
душно
1015.0 1002.1
15 13.06 штиль 0 20 км 4/4 600 м
[Cu hum]
+32.1 +15.6 37 +35 +40 очень
душно
1013.9 1001.0
18 13.06 штиль 0 20 км 4/0
[Ci fib]
+29.0 +14.0 40 +31 +31 жарко 1013.9 1000.9 +32.9
21 13.06 штиль 0 10 км ясно +22.5 +15.6 65 +26 +26 жарко 1015.3 1002.0
00 14.06 штиль 0 10 км ясно +21.0 +16.2 74 +24 +24 комфорт 1015.9 1002.5
03 14.06 штиль 0 20 км ясно +18.7 +14.8 78 +20 +20 1016.1 1002.6
06 14.06 штиль 0 20 км 4/0
[Ci fib]
+26.1 +16.3 55 +30 +37 душно 1017.0 1003.8 +18.3
09 14.06 штиль 0 20 км 4/0
[Ci fib]
+30.1 +15.0 40 +32 +53 опасность
солнечного
удара
1017.6 1004.6
12 14.06 штиль 0 20 км 4/0
[Ci fib]
+32.1 +16.0 38 +35 +55 опасность
солнечного
удара
1016.8 1003.9
15 14.06 штиль 0 20 км 6/4 600 м
[Cu hum Ci fib]
+33.2 +15.2 34 +35 +40 душно 1015.9 1003.1
18 14.06 СВ 1 20 км 9/4 600 м
[Cb cap Ci fib]
+27.4 +15.1 47 +30 +30 жарко 1017.1 1004.0 +34.0
21 14.06 штиль 0 10 км 8/0
[Ci fib]
+24.5 +14.0 52 +27 +27 жарко 1017.4 1004.2
00 15.06 штиль 0 10 км 6/0
[Ci fib]
+22.7 +15.8 65 +27 +27 душно 1016.6 1003.3
03 15.06 штиль 0 20 км 6/0
[Ci fib]
+17.6 +13.7 78 +18 +18 1017.1 1003.6
06 15.06 штиль 0 20 км 6/0
[Ci fib]
+25.2 +16.9 60 +29 +36 душно 1016.6 1003.4 +17.4
09 15.06 штиль 0 20 км 4/0
[Ci fib]
+29.3 +17.1 48 +33 +54 опасность
солнечного
удара
1016.1 1003.1
12 15.06 ЮВ 51 20 км 4/0
[Ci fib]
+32.2 +16.1 38 +35 +35 очень
душно
1014.2 1001.3
15 15.06 З 1 20 км 6/4 600 м
[Cu hum Ci fib]
+33.3 +16.2 36 +36 +40 очень
душно
1012.5 999.7
18 15.06 штиль 0 20 км 8/6 600 м
[Cu hum Ci fib]
+31.5 +16.2 40 +34 +34 душно 1012.2 999.3 +33.9
21 15.06 штиль 0 10 км ясно +23.2 +17.0 68 +28 +28 душно 1012.8 999.6
00 16.06 штиль 0 10 км ясно +23.0 +17.2 70 +28 +28 душно 1012.9 999.7
03 16.06 Ю 1 20 км 8/4 600 м
[Sc Ac trans Ci fib]
+22.8 +16.8 69 +28 +28 душно 1013.2 999.9
06 16.06 ЮВ 1 20 км 6/4 600 м
[Cu hum Ci fib]
+26.6 +20.0 67 +33 +37 очень
душно
1013.4 1000.3 +22.6
09 16.06 В 1 20 км 4/3 600 м
[Cu hum Ci fib]
+30.0 +20.0 55 +36 +50 очень
душно
1013.3 1000.4
12 16.06 ЮЗ 1 20 км 8/4 600 м
[Cu hum Ci fib]
+32.4 +19.3 46 +38 +48 очень
душно
1011.9 999.1
15 16.06 С 2 20 км 8/4 600 м
[Cb cap Ci fib]
+32.6 +18.4 43 +37 +40 очень
душно
1010.9 998.1
18 16.06 штиль 0 20 км 9/8 600 м
[Cb cap Ci fib]
+27.6 +16.2 50 +31 +31 душно 1011.9 998.9 +33.0
21 16.06 СЗ 2 10 км 9/9 600 м
[Cb cap]
+23.6 +18.7 74 +28 +28 душно 1013.2 1000.0
00 17.06 Ю 12 10 км гроза, ливневой дождь 9/9 600 м
[Cb cap]
+17.4 +16.8 96 +16 +16 1018.0 1004.4
03 17.06 СЗ 2 20 км гроза, ливневой дождь 9/6 600 м
[Cb cap Ci fib]
+19.0 +17.7 92 +21 +21 комфорт 1015.6 1002.1
06 17.06 С 2 20 км {гроза, ливн. осадки} 8/6 600 м
[Sc Ac trans Ci fib]
+22.2 +17.8 76 +27 +29 душно 1016.1 1002.8 +16.8 19
09 17.06 СЗ 1 20 км 6 баллов +26.9 +17.6 57
12 17.06 СЗ 2 20 км 8/6 600 м
[Cb cap Ci fib]
+27.4 +18.9 60 +33 +39 очень
душно
1015.7 1002.6
15 17.06 З 4 20 км 4 балла +26.6 +19.2 64
18 17.06 З 2 20 км 8/5 600 м
[Sc Ac trans Ci fib]
+23.0 +17.7 72 +28 +28 душно 1015.6 1002.3 +27.8
21 17.06 штиль 0 10 км 6 баллов +20.4 +15.8 75
00 18.06 штиль 0 10 км 6/0
[Ci fib]
+18.4 +14.9 80 +19 +19 1016.6 1003.1
03 18.06 штиль 0 20 км 9/8 600 м
[Cb cap Ci fib]
+17.0 +13.8 81 +17 +17 1016.8 1003.2
06 18.06 СВ 2 20 км 9 баллов +23.8 +18.7 73 +16.5
09 18.06 ЮВ 1 20 км 7 баллов +27.0 +18.3 59
12 18.06 Ю 1 20 км 7 баллов +29.4 +19.7 56
15 18.06 З 1 20 км 9 баллов +29.6 +19.3 54
18 18.06 штиль 0 20 км 9 баллов +26.8 +20.9 70 +30.7
21 18.06 В 1 20 км 6 баллов +23.6 +16.4 64

 

Местоположение метеостанции Берегово (Закарпатская область, Украина): широта 48.20 долгота 22.60 высота над уровнем моря 114 м.

В архиве по умолчанию представлена погода в Берегове за последнюю неделю. Архивные данные за месяц целиком и за предыдущие месяцы, начиная с января 2011 года, Вы можете получить, выбрав интересующий диапазон дат из раскрывающегося списка и нажав кнопку "Ввод!".


*Определитесь, кто Вы:
робот инопланетянин человек

Внимание! Время в таблицах - всемирное. Для получения местного времени необходимо прибавить поправку, которая равна 2 ч.

Смотрите также архив погоды в соседних городах и на ближайших метеорологических станциях:

Погода в Захони (Венгрия) (39 км)
Погода в Ужгороде (Закарпатская область, Украина) (54 км)
Погода в Сату-Маре (Румыния) (57 км)
Погода в Ньиредьхазе (Венгрия) (59 км)
Погода в Перечине (Закарпатская область, Украина) (60 км)
Погода в Хусте (Закарпатская область, Украина) (63 км)
Погода в Плае (Черновицкая область, Украина) (68 км)
Погода в Великом Березном (Закарпатская область, Украина) (78 км)
Погода в Нижнем Студеном (Закарпатская область, Украина) (79 км)
Погода в Супуру де Йос (Румыния) (82 км)

Пояснения к столбцам:

Ветер - указаны скорость ветра в м/с - средняя за 10 мин, порывы в срок и между сроками (в фигурных скобках) и направление, откуда дует ветер: С - северный, СВ - северо-восточный, В - восточный, ЮВ - юго-восточный, Ю - южный, ЮЗ - юго-западный, З - западный, СЗ - северо-западный.
Видимость - горизонтальная дальность видимости в метрах или километрах. При видимости от 1 до 10 км при отсутствии осадков обычно наблюдается дымка, при ухудшении видимости до 1 км и менее - туман. В сухую погоду видимость может ухудшаться дымом, пылью или мглою.
Явления - указаны атмосферные явления, наблюдавшиеся в срок или в последний час перед сроком; фигурными скобками обозначены явления, наблюдавшиеся между сроками (за 1-3 часа до срока); квадратными скобками обозначены град или гололедные отложения с указанием их диаметра в мм.
Облачность - указаны через наклонную черту общая и нижняя облачность в баллах и высота нижней границы облаков в метрах; квадратными скобками обозначены формы облаков: Ci - перистые, Cs - перисто-слоистые, Cc - перисто-кучевые, Ac - высококучевые, As - высокослоистые, Sc - слоисто-кучевые, Ns - слоисто-дождевые, Cu - кучевые, Cb - кучево-дождевые. Подробнее классификацию облаков см. в Атласе облаков (PDF).
T - Температура воздуха - температура, измеренная на высоте 2 м над землей.
Td - Температура точки росы - температура, при понижении до которой содержащийся в воздухе водяной пар достигнет насыщения.
f - Относительная влажность воздуха - влажноcть воздуха, измеренная на высоте 2 м над землей.
Te - Эффективная температура - температура, которую ощущает одетый по сезону человек в тени. Характеристика душности погоды. При расчете учитывается влияние влажности воздуха и скорости ветра на теплоощущения человека.
Tes - Эффективная температура на солнце - температура, которую ощущает человек, с поправкой на солнечный нагрев. Характеристика знойности погоды. Зависит от высоты солнца над горизонтом, облачности и скорости ветра. Ночью, в пасмурную погоду, а также при ветре 12 м/с и более поправка равна нулю.
P - Атмосферное давление - приведенное к уровню моря атмосферное давление.
Po - Атмосферное давление - измеренное на уровне метеостанции атмосферное давление.
Tmin - Минимальная температура - минимум температуры воздуха на высоте 2 м над землей.
Tmax - Максимальная температура - максимум температуры воздуха на высоте 2 м над землей.
R - Количество осадков - Количество выпавших осадков за период времени, мм. При наведении курсора мыши на число - период времени, за который выпало указанное количество осадков.
R24 - Количество осадков - Количество выпавших осадков за 24 часа, мм.
S - Снежный покров - Высота снежного покрова, см. При наведении курсора мыши на число - состояние снежного покрова и степень покрытия местности в баллах.